Regional Weather Roundup
Issued by NWS Kansas City/Pleasant Hill, MO

Home | Current Version | Previous Version | Graphics & Text | Print | Product List | Glossary Off
Versions: 1 2 3 4 5 6 7 8 9 10 11 12 13 14 15 16 17 18 19 20 21 22 23 24 25 26 27 28 29 30 31 32 33 34 35 36 37 38 39 40 41 42 43 44 45 46 47 48 49 50

000
ASUS43 KEAX 031910
RWREAX

WEATHER ROUNDUP FOR EASTERN KANSAS AND NORTHWEST MISSOURI
NATIONAL WEATHER SERVICE KANSAS CITY/PLEASANT HILL MO
200 PM CDT FRI JUL 03 2015

KSZ040-057-103>105-MOZ028-029-037-043-032000-
...KANSAS CITY METROPOLITAN AREA...

CITY           SKY/WX    TMP DP  RH WIND       PRES   REMARKS
K.C. INTL      MOSUNNY   77  58  51 NE9       29.98S
K.C. DOWNTOWN  SUNNY     80  58  46 N10       29.95F
LEES SUMMIT    SUNNY     77  58  51 NE9       29.97S
OLATHE - IXD   PTSUNNY   78  65  63 VRB5      29.97F
OLATHE - OJC   MOSUNNY   78  63  59 N6        29.96S
LAWRENCE       MOSUNNY   79  62  56 NE9       29.97S

$$

MOZ001>008-011>017-020>025-030>033-038>040-044>046-053-054-032000-
...NORTHERN AND CENTRAL MISSOURI...

CITY           SKY/WX    TMP DP  RH WIND       PRES   REMARKS
ST. JOSEPH     SUNNY     78  54  43 NE8       29.98F
MOSBY          CLEAR     77  54  44 CALM      29.97S
WARRENSBURG    PTSUNNY   77  63  61 N6        29.95F
WHITEMAN AFB   MOSUNNY   77  63  63 NE7       29.94F
CLINTON        PTSUNNY   77  70  78 NE9       29.94F
SEDALIA        SUNNY     80  64  58 VRB6      29.96F
WARSAW         FAIR      79  66  65 N8        29.95F
CHILLICOTHE      N/A     79  61  53 N7        29.98F
KIRKSVILLE     MOSUNNY   77  59  53 N8        29.99F

$$

MOZ041-047>049-056>058-063>065-088>090-097-032000-
...EASTERN AND SOUTHERN MISSOURI...

CITY           SKY/WX    TMP DP  RH WIND       PRES   REMARKS
ST. LOUIS INTL PTSUNNY   81  66  60 N12       29.92F
SPIRIT OF STL  PTSUNNY   80  66  62 N7        29.91S
COLUMBIA       SUNNY     80  61  52 NE6       29.95F
JEFFERSON CITY SUNNY     79  56  45 NE6       29.93F
MEXICO         SUNNY     81  64  57 N5        29.95F
ROLLA          SUNNY     78  62  57 N7        29.93F
LEBANON        MOSUNNY   77  66  69 MISG      29.94F
OSAGE BEACH    CLOUDY    75  64  69 NE7       29.94S
SPRINGFIELD    PTSUNNY   78  69  73 NE16      29.92F
BRANSON        MOSUNNY   81  68  65 NE6       29.92F
JOPLIN         RAIN      71  68  90 NE9       29.92R FOG
WEST PLAINS    LGT RAIN  73  68  84 SE3       29.94F
MALDEN         LGT RAIN  82  72  69 SW7       29.89F

$$

IAZ060-094-KSZ022-034>040-054-083-096-NEZ052-066-093-032000-
...KANSAS...SOUTHEAST NEBRASKA AND IOWA...

CITY           SKY/WX    TMP DP  RH WIND       PRES   REMARKS
TOPEKA         CLOUDY    77  65  66 NE8       29.97F
MANHATTAN      CLOUDY    78  65  63 NE10      29.98F
EMPORIA        LGT RAIN  73  66  78 N9        29.98S
CHANUTE        PTSUNNY   78  70  76 NE13G24   29.92S
WICHITA        MOSUNNY   84  64  50 N10       29.95F
OMAHA          PTSUNNY   76  56  49 CALM      30.01F
LINCOLN        PTSUNNY   77  61  57 N3        30.02F
FALLS CITY     SUNNY     77  58  51 VRB3      29.99F
LAMONI         SUNNY     76  59  55 NE7       30.00F
DES MOINES     MOSUNNY   78  53  41 CALM      29.99F

$$




USA.gov is the U.S. government's official web portal to all federal, state and local government web resources and services.